Time,TemperatureF,DewpointF,PressureIn,WindDirection,WindDirectionDegrees,WindSpeedMPH,WindSpeedGustMPH,Humidity,HourlyPrecipIn,Conditions,Clouds,dailyrainin,SoftwareType,DateUTC
2013-04-02 00:00:00,35.1,16.3,30.00,NW,310,1.0,9.0,46,0.00,,,0.01,meteohub,2013-04-02 04:00:00,
2013-04-02 00:02:00,35.1,16.9,30.00,NNW,344,2.0,9.0,47,0.00,,,0.01,meteohub,2013-04-02 04:02:00,
2013-04-02 00:07:00,34.9,16.2,30.00,NNW,340,2.0,9.0,46,0.00,,,0.00,meteohub,2013-04-02 04:07:00,
2013-04-02 00:13:00,35.1,15.3,30.00,NW,318,5.0,5.0,44,0.00,,,0.00,meteohub,2013-04-02 04:13:00,
2013-04-02 00:19:00,35.2,15.4,30.00,NNW,327,2.0,9.0,44,0.00,,,0.00,meteohub,2013-04-02 04:19:00,
2013-04-02 00:25:00,35.2,16.0,30.01,NW,309,5.0,9.0,45,0.00,,,0.00,meteohub,2013-04-02 04:25:00,
2013-04-02 00:31:00,35.2,15.4,30.00,NW,304,4.0,10.0,44,0.00,,,0.00,meteohub,2013-04-02 04:31:00,
2013-04-02 00:37:00,35.2,15.4,30.00,NNW,330,7.0,10.0,44,0.00,,,0.00,meteohub,2013-04-02 04:37:00,
2013-04-02 00:42:00,35.2,16.0,30.01,NW,307,1.0,10.0,45,0.00,,,0.00,meteohub,2013-04-02 04:42:00,
2013-04-02 00:47:00,35.1,15.3,30.01,NW,321,0.0,10.0,44,0.00,,,0.00,meteohub,2013-04-02 04:47:00,
2013-04-02 00:52:00,35.1,14.9,30.01,NW,310,2.0,8.0,43,0.00,,,0.00,meteohub,2013-04-02 04:52:00,
2013-04-02 00:57:00,35.1,14.9,30.01,NW,321,3.0,6.0,43,0.00,,,0.00,meteohub,2013-04-02 04:57:00,
2013-04-02 01:02:00,35.1,15.3,30.01,NNW,340,3.0,6.0,44,0.00,,,0.00,meteohub,2013-04-02 05:02:00,
2013-04-02 01:07:00,34.9,15.3,30.01,North,355,4.0,6.0,44,0.00,,,0.00,meteohub,2013-04-02 05:07:00,
2013-04-02 01:12:00,35.1,15.3,30.01,NW,323,3.0,7.0,44,0.00,,,0.00,meteohub,2013-04-02 05:12:00,
2013-04-02 01:17:00,35.2,15.4,30.01,WNW,302,2.0,7.0,44,0.00,,,0.00,meteohub,2013-04-02 05:17:00,
2013-04-02 01:23:00,35.1,15.8,30.01,NNW,345,2.0,7.0,45,0.00,,,0.00,meteohub,2013-04-02 05:23:00,
2013-04-02 01:29:00,35.1,15.3,30.01,WNW,298,3.0,5.0,44,0.00,,,0.00,meteohub,2013-04-02 05:29:00,
2013-04-02 01:35:00,35.1,15.8,30.01,NNW,333,2.0,5.0,45,0.00,,,0.00,meteohub,2013-04-02 05:35:00,
2013-04-02 01:41:00,34.9,15.6,30.01,NW,319,2.0,6.0,45,0.00,,,0.00,meteohub,2013-04-02 05:41:00,
2013-04-02 01:47:00,34.9,16.2,30.01,NNW,336,0.0,6.0,46,0.00,,,0.00,meteohub,2013-04-02 05:47:00,
2013-04-02 01:52:00,34.7,16.0,30.00,NNW,333,0.0,6.0,46,0.00,,,0.00,meteohub,2013-04-02 05:52:00,
2013-04-02 01:57:00,34.9,16.2,30.00,NW,308,2.0,9.0,46,0.00,,,0.00,meteohub,2013-04-02 05:57:00,
2013-04-02 02:03:00,34.5,15.4,30.00,NW,321,3.0,11.0,45,0.00,,,0.00,meteohub,2013-04-02 06:03:00,
2013-04-02 02:09:00,34.5,15.8,30.01,NNW,336,4.0,11.0,46,0.00,,,0.00,meteohub,2013-04-02 06:09:00,
2013-04-02 02:17:00,34.9,16.2,30.01,NNW,327,2.0,9.0,46,0.00,,,0.00,meteohub,2013-04-02 06:17:00,
2013-04-02 02:22:00,34.5,15.8,30.01,North,355,0.0,9.0,46,0.00,,,0.00,meteohub,2013-04-02 06:22:00,
2013-04-02 02:27:00,34.3,15.6,30.01,NW,316,4.0,8.0,46,0.00,,,0.00,meteohub,2013-04-02 06:27:00,
2013-04-02 02:32:00,34.7,16.0,30.01,North,350,4.0,9.0,46,0.00,,,0.00,meteohub,2013-04-02 06:32:00,
2013-04-02 02:37:00,34.5,16.9,30.01,WNW,295,4.0,9.0,48,0.00,,,0.00,meteohub,2013-04-02 06:37:00,
2013-04-02 02:42:00,34.3,16.2,30.00,NNW,336,3.0,9.0,47,0.00,,,0.00,meteohub,2013-04-02 06:42:00,
2013-04-02 02:48:00,34.2,16.0,30.00,NNW,333,2.0,7.0,47,0.00,,,0.00,meteohub,2013-04-02 06:48:00,
2013-04-02 02:54:00,34.2,16.5,30.00,WNW,301,6.0,7.0,48,0.00,,,0.00,meteohub,2013-04-02 06:54:00,
2013-04-02 03:00:00,34.2,16.5,30.00,WNW,288,6.0,7.0,48,0.00,,,0.00,meteohub,2013-04-02 07:00:00,
2013-04-02 03:06:00,34.0,17.2,30.00,NNW,327,3.0,12.0,50,0.00,,,0.00,meteohub,2013-04-02 07:06:00,
2013-04-02 03:12:00,33.6,16.9,30.00,NW,314,5.0,12.0,50,0.00,,,0.00,meteohub,2013-04-02 07:12:00,
2013-04-02 03:17:00,33.8,17.1,30.00,NNE,32,0.0,12.0,50,0.00,,,0.00,meteohub,2013-04-02 07:17:00,
2013-04-02 03:24:00,33.4,16.3,30.00,NW,314,2.0,9.0,49,0.00,,,0.00,meteohub,2013-04-02 07:24:00,
2013-04-02 03:30:00,33.4,16.3,30.01,West,272,6.0,8.0,49,0.00,,,0.00,meteohub,2013-04-02 07:30:00,
2013-04-02 03:37:00,33.6,16.9,30.01,NNW,335,3.0,8.0,50,0.00,,,0.00,meteohub,2013-04-02 07:37:00,
2013-04-02 03:42:00,33.4,16.9,30.01,North,10,2.0,8.0,50,0.00,,,0.00,meteohub,2013-04-02 07:42:00,
2013-04-02 03:47:00,33.4,16.3,30.01,NNW,340,3.0,8.0,49,0.00,,,0.00,meteohub,2013-04-02 07:47:00,
2013-04-02 03:52:00,33.3,17.1,30.01,NNW,336,4.0,7.0,51,0.00,,,0.00,meteohub,2013-04-02 07:52:00,
2013-04-02 03:57:00,33.1,16.9,30.01,NNW,342,1.0,7.0,51,0.00,,,0.00,meteohub,2013-04-02 07:57:00,
2013-04-02 04:02:00,32.7,17.1,30.01,NNW,338,2.0,5.0,52,0.00,,,0.00,meteohub,2013-04-02 08:02:00,
2013-04-02 04:07:00,32.5,16.3,30.01,NNW,327,3.0,4.0,51,0.00,,,0.00,meteohub,2013-04-02 08:07:00,
2013-04-02 04:12:00,32.7,16.2,30.01,NNW,334,4.0,5.0,50,0.00,,,0.00,meteohub,2013-04-02 08:12:00,
2013-04-02 04:17:00,32.5,16.3,30.01,NNE,14,2.0,5.0,51,0.00,,,0.00,meteohub,2013-04-02 08:17:00,
2013-04-02 04:23:00,32.5,16.3,30.02,NNW,336,2.0,7.0,51,0.00,,,0.00,meteohub,2013-04-02 08:23:00,
2013-04-02 04:29:00,32.5,16.3,30.01,WNW,302,3.0,7.0,51,0.00,,,0.00,meteohub,2013-04-02 08:29:00,
2013-04-02 04:35:00,32.2,16.5,30.02,NNW,329,1.0,11.0,52,0.00,,,0.00,meteohub,2013-04-02 08:35:00,
2013-04-02 04:41:00,32.2,16.5,30.02,NNW,342,5.0,11.0,52,0.00,,,0.00,meteohub,2013-04-02 08:41:00,
2013-04-02 04:47:00,32.0,16.9,30.02,NNW,338,3.0,7.0,53,0.00,,,0.00,meteohub,2013-04-02 08:47:00,
2013-04-02 04:52:00,32.0,16.0,30.02,NNW,348,1.0,7.0,51,0.00,,,0.00,meteohub,2013-04-02 08:52:00,
2013-04-02 04:57:00,32.2,16.2,30.03,NNW,335,2.0,7.0,51,0.00,,,0.00,meteohub,2013-04-02 08:57:00,
2013-04-02 05:02:00,32.0,15.4,30.03,NW,304,1.0,7.0,50,0.00,,,0.00,meteohub,2013-04-02 09:02:00,
2013-04-02 05:08:00,32.0,16.3,30.03,NNW,338,3.0,5.0,52,0.00,,,0.00,meteohub,2013-04-02 09:08:00,
2013-04-02 05:14:00,31.6,16.0,30.03,NNW,333,2.0,5.0,52,0.00,,,0.00,meteohub,2013-04-02 09:14:00,
2013-04-02 05:20:00,31.8,15.8,30.03,NNW,327,4.0,9.0,51,0.00,,,0.00,meteohub,2013-04-02 09:20:00,
2013-04-02 05:26:00,31.6,16.5,30.03,NW,324,4.0,9.0,53,0.00,,,0.00,meteohub,2013-04-02 09:26:00,
2013-04-02 05:32:00,31.5,15.8,30.03,NW,325,3.0,9.0,52,0.00,,,0.00,meteohub,2013-04-02 09:32:00,
2013-04-02 05:37:00,31.5,15.4,30.04,NNW,336,3.0,7.0,51,0.00,,,0.00,meteohub,2013-04-02 09:37:00,
2013-04-02 05:42:00,31.5,15.8,30.04,NNW,345,1.0,7.0,52,0.00,,,0.00,meteohub,2013-04-02 09:42:00,
2013-04-02 05:47:00,31.3,15.6,30.04,NNW,333,6.0,7.0,52,0.00,,,0.00,meteohub,2013-04-02 09:47:00,
2013-04-02 05:52:00,31.3,15.6,30.04,NNW,338,3.0,7.0,52,0.00,,,0.00,meteohub,2013-04-02 09:52:00,
2013-04-02 05:57:00,30.9,15.4,30.04,NNW,334,3.0,7.0,52,0.00,,,0.00,meteohub,2013-04-02 09:57:00,
2013-04-02 06:02:00,30.7,15.6,30.04,NNW,329,3.0,7.0,53,0.00,,,0.00,meteohub,2013-04-02 10:02:00,
2013-04-02 06:08:00,30.6,15.4,30.04,NW,306,2.0,5.0,53,0.00,,,0.00,meteohub,2013-04-02 10:08:00,
2013-04-02 06:15:00,30.6,15.4,30.04,NNW,331,5.0,5.0,53,0.00,,,0.00,meteohub,2013-04-02 10:15:00,
2013-04-02 06:21:00,30.4,16.2,30.05,WNW,302,3.0,8.0,55,0.00,,,0.00,meteohub,2013-04-02 10:21:00,
2013-04-02 06:27:00,30.6,15.4,30.05,NW,315,3.0,8.0,53,0.00,,,0.00,meteohub,2013-04-02 10:27:00,
2013-04-02 06:32:00,30.6,16.0,30.05,NNW,327,2.0,8.0,54,0.00,,,0.00,meteohub,2013-04-02 10:32:00,
2013-04-02 06:39:00,30.2,15.6,30.06,NNW,342,1.0,8.0,54,0.00,,,0.00,meteohub,2013-04-02 10:39:00,
2013-04-02 06:45:00,30.2,15.6,30.06,NW,321,3.0,6.0,54,0.00,,,0.00,meteohub,2013-04-02 10:45:00,
2013-04-02 06:51:00,30.2,15.6,30.06,NNW,337,4.0,6.0,54,0.00,,,0.00,meteohub,2013-04-02 10:51:00,
2013-04-02 06:57:00,30.0,15.8,30.07,NNW,339,0.0,6.0,55,0.00,,,0.00,meteohub,2013-04-02 10:57:00,
2013-04-02 07:02:00,29.7,15.1,30.07,NNW,338,0.0,6.0,54,0.00,,,0.00,meteohub,2013-04-02 11:02:00,
2013-04-02 07:07:00,29.7,15.4,30.08,NW,311,1.0,4.0,55,0.00,,,0.00,meteohub,2013-04-02 11:07:00,
2013-04-02 07:12:00,29.7,15.4,30.08,NNW,332,3.0,3.0,55,0.00,,,0.00,meteohub,2013-04-02 11:12:00,
2013-04-02 07:17:00,29.5,15.3,30.08,NW,304,1.0,4.0,55,0.00,,,0.00,meteohub,2013-04-02 11:17:00,
2013-04-02 07:22:00,29.3,15.6,30.09,NNW,329,0.0,4.0,56,0.00,,,0.00,meteohub,2013-04-02 11:22:00,
2013-04-02 07:27:00,29.3,15.1,30.09,NNW,329,3.0,4.0,55,0.00,,,0.00,meteohub,2013-04-02 11:27:00,
2013-04-02 07:33:00,29.5,14.9,30.09,North,355,3.0,3.0,54,0.00,,,0.00,meteohub,2013-04-02 11:33:00,
2013-04-02 07:39:00,29.7,15.4,30.10,NNW,327,6.0,6.0,55,0.00,,,0.00,meteohub,2013-04-02 11:39:00,
2013-04-02 07:45:00,29.8,15.6,30.10,NNW,340,1.0,6.0,55,0.00,,,0.00,meteohub,2013-04-02 11:45:00,
2013-04-02 07:51:00,29.8,16.0,30.11,NNW,338,4.0,7.0,56,0.00,,,0.00,meteohub,2013-04-02 11:51:00,
2013-04-02 07:57:00,29.8,16.5,30.11,NNW,340,3.0,8.0,57,0.00,,,0.00,meteohub,2013-04-02 11:57:00,
2013-04-02 08:04:00,29.8,15.6,30.11,NNW,342,4.0,8.0,55,0.00,,,0.00,meteohub,2013-04-02 12:04:00,
2013-04-02 08:10:00,30.0,16.2,30.12,NNW,329,5.0,8.0,56,0.00,,,0.00,meteohub,2013-04-02 12:10:00,
2013-04-02 08:16:00,30.2,16.3,30.12,NNW,340,7.0,8.0,56,0.00,,,0.00,meteohub,2013-04-02 12:16:00,
2013-04-02 08:22:00,30.4,16.5,30.12,NNE,21,0.0,8.0,56,0.00,,,0.00,meteohub,2013-04-02 12:22:00,
2013-04-02 08:27:00,30.6,16.3,30.12,ENE,74,1.0,8.0,55,0.00,,,0.00,meteohub,2013-04-02 12:27:00,
2013-04-02 08:32:00,30.6,16.0,30.12,NNW,335,2.0,8.0,54,0.00,,,0.00,meteohub,2013-04-02 12:32:00,
2013-04-02 08:37:00,30.7,17.2,30.12,NW,325,2.0,6.0,57,0.00,,,0.00,meteohub,2013-04-02 12:37:00,
2013-04-02 08:43:00,30.7,16.0,30.13,WNW,302,3.0,6.0,54,0.00,,,0.00,meteohub,2013-04-02 12:43:00,
2013-04-02 08:49:00,30.7,16.0,30.13,NW,324,4.0,6.0,54,0.00,,,0.00,meteohub,2013-04-02 12:49:00,
2013-04-02 08:55:00,30.6,16.0,30.13,NNW,334,8.0,8.0,54,0.00,,,0.00,meteohub,2013-04-02 12:55:00,
2013-04-02 09:02:00,30.7,15.6,30.13,NNW,340,5.0,9.0,53,0.00,,,0.00,meteohub,2013-04-02 13:02:00,
2013-04-02 09:07:00,30.6,16.3,30.13,NNW,348,5.0,9.0,55,0.00,,,0.00,meteohub,2013-04-02 13:07:00,
2013-04-02 09:12:00,30.9,15.8,30.13,NNW,334,4.0,9.0,53,0.00,,,0.00,meteohub,2013-04-02 13:12:00,
2013-04-02 09:17:00,31.3,16.2,30.13,NW,304,6.0,8.0,53,0.00,,,0.00,meteohub,2013-04-02 13:17:00,
2013-04-02 09:22:00,30.9,14.9,30.13,NNW,329,3.0,8.0,51,0.00,,,0.00,meteohub,2013-04-02 13:22:00,
2013-04-02 09:29:00,31.5,16.3,30.13,WNW,295,5.0,8.0,53,0.00,,,0.00,meteohub,2013-04-02 13:29:00,
2013-04-02 09:35:00,32.2,16.5,30.13,WNW,300,1.0,8.0,52,0.00,,,0.00,meteohub,2013-04-02 13:35:00,
2013-04-02 09:41:00,32.4,16.7,30.14,WNW,298,2.0,8.0,52,0.00,,,0.00,meteohub,2013-04-02 13:41:00,
2013-04-02 09:47:00,32.0,15.4,30.13,NNW,337,2.0,8.0,50,0.00,,,0.00,meteohub,2013-04-02 13:47:00,
2013-04-02 09:52:00,31.8,14.9,30.14,NNW,331,3.0,8.0,49,0.00,,,0.00,meteohub,2013-04-02 13:52:00,
2013-04-02 09:57:00,31.8,14.9,30.14,NW,324,3.0,9.0,49,0.00,,,0.00,meteohub,2013-04-02 13:57:00,
2013-04-02 10:02:00,32.0,15.1,30.14,WNW,299,2.0,11.0,49,0.00,,,0.00,meteohub,2013-04-02 14:02:00,
2013-04-02 10:07:00,32.4,15.3,30.14,North,349,4.0,11.0,49,0.00,,,0.00,meteohub,2013-04-02 14:07:00,
2013-04-02 10:12:00,33.1,16.5,30.14,NNW,333,3.0,9.0,50,0.00,,,0.00,meteohub,2013-04-02 14:12:00,
2013-04-02 10:17:00,33.1,15.4,30.14,NW,321,6.0,9.0,48,0.00,,,0.00,meteohub,2013-04-02 14:17:00,
2013-04-02 10:22:00,32.9,15.8,30.14,NNE,30,3.0,10.0,49,0.00,,,0.00,meteohub,2013-04-02 14:22:00,
2013-04-02 10:29:00,33.4,15.8,30.14,NW,304,4.0,12.0,48,0.00,,,0.00,meteohub,2013-04-02 14:29:00,
2013-04-02 10:35:00,34.2,16.5,30.14,NW,313,1.0,12.0,48,0.00,,,0.00,meteohub,2013-04-02 14:35:00,
2013-04-02 10:41:00,33.3,14.7,30.14,North,5,3.0,8.0,46,0.00,,,0.00,meteohub,2013-04-02 14:41:00,
2013-04-02 10:47:00,33.6,16.0,30.14,NW,315,4.0,9.0,48,0.00,,,0.00,meteohub,2013-04-02 14:47:00,
2013-04-02 10:52:00,34.7,17.1,30.14,NW,317,3.0,10.0,48,0.00,,,0.00,meteohub,2013-04-02 14:52:00,
2013-04-02 10:57:00,35.1,15.8,30.14,NE,38,3.0,10.0,45,0.00,,,0.00,meteohub,2013-04-02 14:57:00,
2013-04-02 11:02:00,34.7,15.1,30.14,NNW,333,0.0,9.0,44,0.00,,,0.00,meteohub,2013-04-02 15:02:00,
2013-04-02 11:08:00,35.4,15.6,30.14,WNW,302,3.0,9.0,44,0.00,,,0.00,meteohub,2013-04-02 15:08:00,
2013-04-02 11:15:00,36.0,16.7,30.14,NE,44,4.0,8.0,45,0.00,,,0.00,meteohub,2013-04-02 15:15:00,
2013-04-02 11:21:00,35.4,15.6,30.14,NNW,331,5.0,11.0,44,0.00,,,0.00,meteohub,2013-04-02 15:21:00,
2013-04-02 11:27:00,36.9,19.0,30.14,NNW,329,4.0,11.0,48,0.00,,,0.00,meteohub,2013-04-02 15:27:00,
2013-04-02 11:32:00,37.0,17.6,30.14,North,0,5.0,10.0,45,0.00,,,0.00,meteohub,2013-04-02 15:32:00,
2013-04-02 11:37:00,36.9,18.0,30.15,NNW,332,2.0,12.0,46,0.00,,,0.00,meteohub,2013-04-02 15:37:00,
2013-04-02 11:42:00,37.8,17.2,30.15,WNW,299,3.0,12.0,43,0.00,,,0.00,meteohub,2013-04-02 15:42:00,
2013-04-02 11:47:00,37.2,16.7,30.15,NNW,330,6.0,12.0,43,0.00,,,0.00,meteohub,2013-04-02 15:47:00,
2013-04-02 11:54:00,36.9,16.0,30.14,NW,315,3.0,9.0,42,0.00,,,0.00,meteohub,2013-04-02 15:54:00,
2013-04-02 12:00:00,37.6,17.1,30.14,NNW,336,4.0,9.0,43,0.00,,,0.00,meteohub,2013-04-02 16:00:00,
2013-04-02 12:07:00,36.7,14.5,30.14,NNW,335,5.0,13.0,40,0.00,,,0.00,meteohub,2013-04-02 16:07:00,
2013-04-02 12:12:00,37.0,14.4,30.14,WNW,295,5.0,13.0,39,0.00,,,0.00,meteohub,2013-04-02 16:12:00,
2013-04-02 12:18:00,37.6,14.2,30.14,NNW,340,5.0,13.0,38,0.00,,,0.00,meteohub,2013-04-02 16:18:00,
2013-04-02 12:24:00,38.1,16.5,30.14,NW,311,3.0,12.0,41,0.00,,,0.00,meteohub,2013-04-02 16:24:00,
2013-04-02 12:30:00,38.1,15.3,30.14,NW,308,7.0,11.0,39,0.00,,,0.00,meteohub,2013-04-02 16:30:00,
2013-04-02 12:37:00,38.8,16.5,30.14,SW,233,3.0,11.0,40,0.00,,,0.00,meteohub,2013-04-02 16:37:00,
2013-04-02 12:43:00,39.2,16.3,30.14,NNW,331,2.0,10.0,39,0.00,,,0.00,meteohub,2013-04-02 16:43:00,
2013-04-02 12:49:00,38.8,15.4,30.14,SE,145,4.0,10.0,38,0.00,,,0.00,meteohub,2013-04-02 16:49:00,
2013-04-02 12:56:00,39.2,15.8,30.14,NW,309,3.0,9.0,38,0.00,,,0.00,meteohub,2013-04-02 16:56:00,
2013-04-02 13:02:00,39.9,18.7,30.13,WNW,296,3.0,10.0,42,0.00,,,0.00,meteohub,2013-04-02 17:02:00,
2013-04-02 13:07:00,40.6,17.6,30.13,NW,324,3.0,10.0,39,0.00,,,0.00,meteohub,2013-04-02 17:07:00,
2013-04-02 13:12:00,40.8,16.5,30.13,NNW,327,8.0,10.0,37,0.00,,,0.00,meteohub,2013-04-02 17:12:00,
2013-04-02 13:17:00,40.5,17.4,30.13,NNW,340,5.0,8.0,39,0.00,,,0.00,meteohub,2013-04-02 17:17:00,
2013-04-02 13:23:00,38.8,14.2,30.13,NNW,327,4.0,9.0,36,0.00,,,0.00,meteohub,2013-04-02 17:23:00,
2013-04-02 13:29:00,39.9,15.1,30.13,WNW,300,4.0,14.0,36,0.00,,,0.00,meteohub,2013-04-02 17:29:00,
2013-04-02 13:35:00,39.7,15.6,30.12,NNW,332,7.0,14.0,37,0.00,,,0.00,meteohub,2013-04-02 17:35:00,
2013-04-02 13:42:00,40.3,14.7,30.13,NW,324,5.0,14.0,35,0.00,,,0.00,meteohub,2013-04-02 17:42:00,
2013-04-02 13:47:00,40.3,16.2,30.12,North,355,7.0,14.0,37,0.00,,,0.00,meteohub,2013-04-02 17:47:00,
2013-04-02 13:54:00,42.1,16.3,30.12,WNW,298,4.0,14.0,35,0.00,,,0.00,meteohub,2013-04-02 17:54:00,
2013-04-02 14:00:00,41.5,16.0,30.13,WNW,292,5.0,10.0,35,0.00,,,0.00,meteohub,2013-04-02 18:00:00,
2013-04-02 14:06:00,41.4,15.1,30.12,NNW,336,5.0,10.0,34,0.00,,,0.00,meteohub,2013-04-02 18:06:00,
2013-04-02 14:12:00,42.4,14.0,30.12,NNW,338,8.0,8.0,31,0.00,,,0.00,meteohub,2013-04-02 18:12:00,
2013-04-02 14:17:00,42.3,15.3,30.12,NW,305,3.0,12.0,33,0.00,,,0.00,meteohub,2013-04-02 18:17:00,
2013-04-02 14:22:00,41.7,16.2,30.12,ESE,116,2.0,12.0,35,0.00,,,0.00,meteohub,2013-04-02 18:22:00,
2013-04-02 14:27:00,42.3,15.3,30.12,NW,322,6.0,12.0,33,0.00,,,0.00,meteohub,2013-04-02 18:27:00,
2013-04-02 14:37:00,42.1,14.4,30.11,NNW,330,7.0,12.0,32,0.00,,,0.00,meteohub,2013-04-02 18:37:00,
2013-04-02 14:44:00,42.4,16.0,30.11,North,0,0.0,14.0,34,0.00,,,0.00,meteohub,2013-04-02 18:44:00,
2013-04-02 14:51:00,41.4,13.6,30.11,North,5,2.0,14.0,32,0.00,,,0.00,meteohub,2013-04-02 18:51:00,
2013-04-02 14:57:00,42.3,16.5,30.11,NNW,328,3.0,9.0,35,0.00,,,0.00,meteohub,2013-04-02 18:57:00,
2013-04-02 15:03:00,43.9,16.0,30.11,NW,324,6.0,10.0,32,0.00,,,0.00,meteohub,2013-04-02 19:03:00,
2013-04-02 15:09:00,43.9,16.0,30.10,NE,45,2.0,10.0,32,0.00,,,0.00,meteohub,2013-04-02 19:09:00,
2013-04-02 15:16:00,43.3,17.6,30.10,NNW,338,9.0,12.0,35,0.00,,,0.00,meteohub,2013-04-02 19:16:00,
2013-04-02 15:22:00,43.5,14.2,30.10,WNW,289,7.0,11.0,30,0.00,,,0.00,meteohub,2013-04-02 19:22:00,
2013-04-02 15:27:00,42.4,14.0,30.10,NW,313,1.0,11.0,31,0.00,,,0.00,meteohub,2013-04-02 19:27:00,
2013-04-02 15:32:00,43.0,16.5,30.09,WNW,302,6.0,10.0,34,0.00,,,0.00,meteohub,2013-04-02 19:32:00,
2013-04-02 15:37:00,43.3,16.2,30.09,WNW,300,9.0,10.0,33,0.00,,,0.00,meteohub,2013-04-02 19:37:00,
2013-04-02 15:43:00,41.9,14.2,30.09,NW,319,3.0,9.0,32,0.00,,,0.00,meteohub,2013-04-02 19:43:00,
2013-04-02 15:49:00,42.6,16.9,30.09,North,5,2.0,9.0,35,0.00,,,0.00,meteohub,2013-04-02 19:49:00,
2013-04-02 15:56:00,45.1,17.8,30.09,NNW,340,4.0,8.0,33,0.00,,,0.00,meteohub,2013-04-02 19:56:00,
2013-04-02 16:02:00,45.3,14.2,30.09,North,355,3.0,8.0,28,0.00,,,0.00,meteohub,2013-04-02 20:02:00,
2013-04-02 16:07:00,44.4,14.9,30.09,NNE,26,4.0,7.0,30,0.00,,,0.00,meteohub,2013-04-02 20:07:00,
2013-04-02 16:12:00,44.6,14.4,30.09,NW,325,6.0,9.0,29,0.00,,,0.00,meteohub,2013-04-02 20:12:00,
2013-04-02 16:17:00,44.4,14.2,30.09,WNW,301,7.0,10.0,29,0.00,,,0.00,meteohub,2013-04-02 20:17:00,
2013-04-02 16:23:00,43.5,13.3,30.09,NW,317,4.0,10.0,29,0.00,,,0.00,meteohub,2013-04-02 20:23:00,
2013-04-02 16:29:00,43.3,11.7,30.09,NNE,28,5.0,11.0,27,0.00,,,0.00,meteohub,2013-04-02 20:29:00,
2013-04-02 16:36:00,43.5,14.2,30.09,NW,318,4.0,11.0,30,0.00,,,0.00,meteohub,2013-04-02 20:36:00,
2013-04-02 16:42:00,44.4,13.3,30.09,NW,321,5.0,12.0,28,0.00,,,0.00,meteohub,2013-04-02 20:42:00,
2013-04-02 16:48:00,44.1,13.1,30.09,NW,306,3.0,12.0,28,0.00,,,0.00,meteohub,2013-04-02 20:48:00,
2013-04-02 16:54:00,44.2,14.7,30.09,NW,314,2.0,10.0,30,0.00,,,0.00,meteohub,2013-04-02 20:54:00,
2013-04-02 17:00:00,44.1,13.1,30.09,NNW,329,4.0,9.0,28,0.00,,,0.00,meteohub,2013-04-02 21:00:00,
2013-04-02 17:06:00,43.9,13.6,30.09,NNW,327,9.0,9.0,29,0.00,,,0.00,meteohub,2013-04-02 21:06:00,
2013-04-02 17:12:00,43.3,12.4,30.09,NW,313,4.0,13.0,28,0.00,,,0.00,meteohub,2013-04-02 21:12:00,
2013-04-02 17:17:00,43.0,12.0,30.10,NW,309,3.0,13.0,28,0.00,,,0.00,meteohub,2013-04-02 21:17:00,
2013-04-02 17:22:00,43.2,13.8,30.10,NNW,340,9.0,13.0,30,0.00,,,0.00,meteohub,2013-04-02 21:22:00,
2013-04-02 17:28:00,43.3,12.4,30.10,NNW,327,9.0,11.0,28,0.00,,,0.00,meteohub,2013-04-02 21:28:00,
2013-04-02 17:34:00,42.8,12.0,30.10,North,9,4.0,13.0,28,0.00,,,0.00,meteohub,2013-04-02 21:34:00,
2013-04-02 17:40:00,42.1,13.6,30.10,NNW,346,4.0,15.0,31,0.00,,,0.00,meteohub,2013-04-02 21:40:00,
2013-04-02 17:46:00,41.9,12.0,30.10,NW,308,6.0,15.0,29,0.00,,,0.00,meteohub,2013-04-02 21:46:00,
2013-04-02 17:52:00,41.9,12.0,30.10,NW,317,5.0,15.0,29,0.00,,,0.00,meteohub,2013-04-02 21:52:00,
2013-04-02 17:57:00,42.1,12.9,30.10,NNW,336,9.0,15.0,30,0.00,,,0.00,meteohub,2013-04-02 21:57:00,
2013-04-02 18:04:00,42.6,11.8,30.11,NNW,335,5.0,11.0,28,0.00,,,0.00,meteohub,2013-04-02 22:04:00,
2013-04-02 18:10:00,42.4,14.0,30.11,NW,307,4.0,10.0,31,0.00,,,0.00,meteohub,2013-04-02 22:10:00,
2013-04-02 18:16:00,41.7,11.8,30.11,NW,306,6.0,11.0,29,0.00,,,0.00,meteohub,2013-04-02 22:16:00,
2013-04-02 18:22:00,41.7,12.6,30.11,WNW,295,5.0,11.0,30,0.00,,,0.00,meteohub,2013-04-02 22:22:00,
2013-04-02 18:27:00,42.1,12.9,30.11,NNW,338,4.0,12.0,30,0.00,,,0.00,meteohub,2013-04-02 22:27:00,
2013-04-02 18:32:00,42.3,13.8,30.12,WNW,300,5.0,12.0,31,0.00,,,0.00,meteohub,2013-04-02 22:32:00,
2013-04-02 18:37:00,41.9,13.5,30.12,NNW,338,2.0,9.0,31,0.00,,,0.00,meteohub,2013-04-02 22:37:00,
2013-04-02 18:43:00,41.9,12.7,30.12,NNW,331,5.0,9.0,30,0.00,,,0.00,meteohub,2013-04-02 22:43:00,
2013-04-02 18:50:00,41.5,13.1,30.12,East,79,3.0,7.0,31,0.00,,,0.00,meteohub,2013-04-02 22:50:00,
2013-04-02 18:56:00,41.4,14.4,30.12,NW,326,3.0,7.0,33,0.00,,,0.00,meteohub,2013-04-02 22:56:00,
2013-04-02 19:02:00,41.2,14.9,30.12,NNW,331,4.0,7.0,34,0.00,,,0.00,meteohub,2013-04-02 23:02:00,
2013-04-02 19:07:00,40.8,13.3,30.13,North,355,5.0,7.0,32,0.00,,,0.00,meteohub,2013-04-02 23:07:00,
2013-04-02 19:12:00,40.5,12.9,30.13,NNW,330,1.0,7.0,32,0.00,,,0.00,meteohub,2013-04-02 23:12:00,
2013-04-02 19:17:00,40.3,14.7,30.13,NNW,327,3.0,7.0,35,0.00,,,0.00,meteohub,2013-04-02 23:17:00,
2013-04-02 19:22:00,39.7,12.9,30.13,NNW,348,8.0,8.0,33,0.00,,,0.00,meteohub,2013-04-02 23:22:00,
2013-04-02 19:30:00,39.2,13.1,30.14,NNW,327,2.0,8.0,34,0.00,,,0.00,meteohub,2013-04-02 23:30:00,
2013-04-02 19:37:00,38.7,13.3,30.14,NNW,343,3.0,8.0,35,0.00,,,0.00,meteohub,2013-04-02 23:37:00,
2013-04-02 19:42:00,38.5,13.8,30.14,NW,325,7.0,7.0,36,0.00,,,0.00,meteohub,2013-04-02 23:42:00,
2013-04-02 19:48:00,38.1,13.5,30.14,North,0,6.0,8.0,36,0.00,,,0.00,meteohub,2013-04-02 23:48:00,
2013-04-02 19:57:00,37.9,12.0,30.14,NNW,327,1.0,8.0,34,0.00,,,0.00,meteohub,2013-04-02 23:57:00,
2013-04-02 20:04:00,37.8,11.8,30.14,NNW,336,0.0,8.0,34,0.00,,,0.00,meteohub,2013-04-03 00:04:00,
2013-04-02 20:10:00,37.6,13.1,30.15,NNW,327,2.0,6.0,36,0.00,,,0.00,meteohub,2013-04-03 00:10:00,
2013-04-02 20:16:00,37.0,12.6,30.15,NNW,333,2.0,4.0,36,0.00,,,0.00,meteohub,2013-04-03 00:16:00,
2013-04-02 20:22:00,36.9,13.1,30.15,NW,326,3.0,6.0,37,0.00,,,0.00,meteohub,2013-04-03 00:22:00,
2013-04-02 20:27:00,36.9,13.1,30.16,NNW,336,0.0,7.0,37,0.00,,,0.00,meteohub,2013-04-03 00:27:00,
2013-04-02 20:32:00,36.7,12.9,30.16,NNW,335,2.0,7.0,37,0.00,,,0.00,meteohub,2013-04-03 00:32:00,
2013-04-02 20:42:00,36.5,12.7,30.16,NNW,338,4.0,5.0,37,0.00,,,0.00,meteohub,2013-04-03 00:42:00,
2013-04-02 20:48:00,36.5,12.7,30.16,North,355,2.0,6.0,37,0.00,,,0.00,meteohub,2013-04-03 00:48:00,
2013-04-02 20:55:00,36.3,12.6,30.17,NNW,331,2.0,6.0,37,0.00,,,0.00,meteohub,2013-04-03 00:55:00,
2013-04-02 21:01:00,36.3,11.8,30.17,NNW,347,4.0,6.0,36,0.00,,,0.00,meteohub,2013-04-03 01:01:00,
2013-04-02 21:07:00,36.7,12.9,30.17,NNW,336,3.0,7.0,37,0.00,,,0.00,meteohub,2013-04-03 01:07:00,
2013-04-02 21:12:00,36.3,13.1,30.17,NNW,338,5.0,7.0,38,0.00,,,0.00,meteohub,2013-04-03 01:12:00,
2013-04-02 21:17:00,36.1,12.9,30.18,NNW,345,4.0,7.0,38,0.00,,,0.00,meteohub,2013-04-03 01:17:00,
2013-04-02 21:22:00,36.1,12.9,30.18,NNW,335,3.0,5.0,38,0.00,,,0.00,meteohub,2013-04-03 01:22:00,
2013-04-02 21:27:00,36.1,12.9,30.18,NNW,339,3.0,5.0,38,0.00,,,0.00,meteohub,2013-04-03 01:27:00,
2013-04-02 21:32:00,36.1,12.9,30.18,NNW,331,5.0,5.0,38,0.00,,,0.00,meteohub,2013-04-03 01:32:00,
2013-04-02 21:38:00,36.0,13.5,30.18,NNW,331,0.0,5.0,39,0.00,,,0.00,meteohub,2013-04-03 01:38:00,
2013-04-02 21:44:00,35.8,13.3,30.18,NNW,342,5.0,5.0,39,0.00,,,0.00,meteohub,2013-04-03 01:44:00,
2013-04-02 21:50:00,36.0,13.5,30.19,NNW,333,1.0,6.0,39,0.00,,,0.00,meteohub,2013-04-03 01:50:00,
2013-04-02 21:56:00,35.8,13.3,30.19,NNW,336,1.0,6.0,39,0.00,,,0.00,meteohub,2013-04-03 01:56:00,
2013-04-02 22:02:00,35.4,13.5,30.19,NNW,342,3.0,6.0,40,0.00,,,0.00,meteohub,2013-04-03 02:02:00,
2013-04-02 22:07:00,35.4,12.9,30.19,NW,315,1.0,5.0,39,0.00,,,0.00,meteohub,2013-04-03 02:07:00,
2013-04-02 22:15:00,35.4,12.9,30.19,NNW,330,3.0,5.0,39,0.00,,,0.00,meteohub,2013-04-03 02:15:00,
2013-04-02 22:21:00,35.4,12.9,30.19,NNW,336,3.0,5.0,39,0.00,,,0.00,meteohub,2013-04-03 02:21:00,
2013-04-02 22:27:00,35.4,12.9,30.19,NNW,336,1.0,5.0,39,0.00,,,0.00,meteohub,2013-04-03 02:27:00,
2013-04-02 22:33:00,35.2,13.3,30.19,NNW,333,2.0,5.0,40,0.00,,,0.00,meteohub,2013-04-03 02:33:00,
2013-04-02 22:40:00,35.2,12.7,30.19,NNW,333,1.0,5.0,39,0.00,,,0.00,meteohub,2013-04-03 02:40:00,
2013-04-02 22:46:00,35.2,12.7,30.19,NNW,338,2.0,5.0,39,0.00,,,0.00,meteohub,2013-04-03 02:46:00,
2013-04-02 22:52:00,35.2,12.7,30.19,NNW,334,3.0,5.0,39,0.00,,,0.00,meteohub,2013-04-03 02:52:00,
2013-04-02 22:57:00,35.1,13.1,30.19,NNW,331,1.0,4.0,40,0.00,,,0.00,meteohub,2013-04-03 02:57:00,
2013-04-02 23:03:00,34.9,13.6,30.19,NNW,331,0.0,4.0,41,0.00,,,0.00,meteohub,2013-04-03 03:03:00,
2013-04-02 23:10:00,34.7,12.9,30.19,NNW,333,0.0,4.0,40,0.00,,,0.00,meteohub,2013-04-03 03:10:00,
2013-04-02 23:16:00,34.9,12.9,30.19,NNW,340,1.0,4.0,40,0.00,,,0.00,meteohub,2013-04-03 03:16:00,
2013-04-02 23:22:00,34.7,12.9,30.19,NNW,329,0.0,4.0,40,0.00,,,0.00,meteohub,2013-04-03 03:22:00,
2013-04-02 23:27:00,34.3,13.1,30.19,NNW,330,1.0,3.0,41,0.00,,,0.00,meteohub,2013-04-03 03:27:00,
2013-04-02 23:32:00,34.2,12.9,30.19,NNW,331,1.0,3.0,41,0.00,,,0.00,meteohub,2013-04-03 03:32:00,
2013-04-02 23:38:00,34.0,13.3,30.19,NNW,338,3.0,3.0,42,0.00,,,0.00,meteohub,2013-04-03 03:38:00,
2013-04-02 23:44:00,33.6,12.9,30.20,NNW,331,1.0,4.0,42,0.00,,,0.00,meteohub,2013-04-03 03:44:00,
2013-04-02 23:50:00,33.3,13.1,30.20,NNW,345,0.0,4.0,43,0.00,,,0.00,meteohub,2013-04-03 03:50:00,
2013-04-02 23:57:00,33.1,13.5,30.20,NNW,340,3.0,4.0,44,0.00,,,0.00,meteohub,2013-04-03 03:57:00,